When you browse on this site, cookies collect data to enhance your experience and personalize the content and advertising you see.
Visit our Privacy Policy to learn more. By continuing to use the site, you agree to this use of cookies and data.
EN

Hourly Weather Mardan

Today, 13 July, Monday

Time Temperature Precipitation Wind Pressure Humidity
00:00 +34°C° 0.1 mm 2 mps 725 mmHg 45%
01:00 +34°C° 0.1 mm 2 mps 724 mmHg 48%
02:00 +33°C° 0.1 mm 3 mps 724 mmHg 51%
03:00 +32°C° 0.1 mm 2 mps 724 mmHg 52%
04:00 +31°C° 0.1 mm 2 mps 724 mmHg 54%
05:00 +30°C° 0 mm 2 mps 725 mmHg 54%
06:00 +31°C° 0 mm 1 mps 725 mmHg 51%
07:00 +33°C° 0 mm 1 mps 725 mmHg 47%
08:00 +32°C° 0 mm 0 mps 725 mmHg 43%
09:00 +35°C° 0 mm 1 mps 725 mmHg 40%
10:00 +36°C° 0 mm 1 mps 725 mmHg 36%
11:00 +39°C° 0 mm 1 mps 725 mmHg 32%
12:00 +40°C° 0 mm 1 mps 724 mmHg 30%
13:00 +41°C° 0 mm 1 mps 724 mmHg 27%
14:00 +42°C° 0 mm 2 mps 724 mmHg 25%
15:00 +42°C° 0 mm 1 mps 723 mmHg 24%
16:00 +42°C° 0 mm 1 mps 723 mmHg 24%
17:00 +42°C° 0 mm 1 mps 722 mmHg 23%
18:00 +41°C° 0 mm 1 mps 723 mmHg 25%
19:00 +40°C° 0 mm 1 mps 723 mmHg 27%
20:00 +39°C° 0 mm 1 mps 723 mmHg 29%
21:00 +37°C° 0 mm 1 mps 723 mmHg 30%
22:00 +37°C° 0 mm 1 mps 723 mmHg 31%
23:00 +36°C° 0 mm 1 mps 723 mmHg 32%

Tomorrow, 14 July, Tuesday

Time Temperature Precipitation Wind Pressure Humidity
00:00 +36°C° 0.2 mm 1 mps 723 mmHg 35%
01:00 +35°C° 0.2 mm 1 mps 723 mmHg 37%
02:00 +34°C° 0.2 mm 1 mps 723 mmHg 39%
03:00 +34°C° 0.1 mm 1 mps 724 mmHg 40%
04:00 +33°C° 0.1 mm 1 mps 724 mmHg 42%
05:00 +33°C° 0.1 mm 1 mps 724 mmHg 43%
06:00 +34°C° 0.2 mm 1 mps 724 mmHg 40%
07:00 +35°C° 0.2 mm 1 mps 725 mmHg 38%
08:00 +36°C° 0.2 mm 1 mps 725 mmHg 35%
09:00 +39°C° 0 mm 1 mps 725 mmHg 32%
10:00 +40°C° 0 mm 1 mps 725 mmHg 29%
11:00 +42°C° 0 mm 1 mps 725 mmHg 26%
12:00 +43°C° 0 mm 1 mps 724 mmHg 24%
13:00 +45°C° 0 mm 2 mps 724 mmHg 23%
14:00 +45°C° 0 mm 2 mps 723 mmHg 21%
15:00 +46°C° 0 mm 2 mps 723 mmHg 20%
16:00 +46°C° 0 mm 2 mps 723 mmHg 20%
17:00 +46°C° 0 mm 2 mps 722 mmHg 19%
18:00 +45°C° 0 mm 2 mps 722 mmHg 21%
19:00 +42°C° 0 mm 2 mps 722 mmHg 23%
20:00 +42°C° 0 mm 3 mps 722 mmHg 25%
21:00 +40°C° 0 mm 2 mps 722 mmHg 26%
22:00 +40°C° 0 mm 2 mps 723 mmHg 28%
23:00 +39°C° 0 mm 1 mps 723 mmHg 29%

Day after tomorrow, 15 July, Wednesday

Time Temperature Precipitation Wind Pressure Humidity
00:00 +38°C° 0.1 mm 2 mps 723 mmHg 31%
01:00 +37°C° 0.1 mm 2 mps 723 mmHg 34%
02:00 +36°C° 0.1 mm 2 mps 723 mmHg 36%
03:00 +36°C° 0 mm 2 mps 723 mmHg 37%
04:00 +35°C° 0 mm 2 mps 723 mmHg 38%
05:00 +35°C° 0 mm 2 mps 723 mmHg 40%
06:00 +36°C° 0 mm 2 mps 723 mmHg 37%
07:00 +37°C° 0 mm 2 mps 724 mmHg 34%
08:00 +39°C° 0 mm 2 mps 724 mmHg 31%
09:00 +41°C° 0 mm 1 mps 724 mmHg 28%
10:00 +42°C° 0 mm 1 mps 724 mmHg 25%
11:00 +44°C° 0 mm 1 mps 724 mmHg 22%
12:00 +45°C° 0 mm 1 mps 724 mmHg 20%
13:00 +46°C° 0 mm 1 mps 723 mmHg 19%
14:00 +47°C° 0 mm 1 mps 723 mmHg 17%
15:00 +47°C° 0 mm 1 mps 723 mmHg 17%
16:00 +47°C° 0 mm 1 mps 722 mmHg 16%
17:00 +47°C° 0 mm 1 mps 722 mmHg 16%
18:00 +46°C° 0.1 mm 3 mps 722 mmHg 19%
19:00 +44°C° 0.1 mm 4 mps 723 mmHg 22%
20:00 +41°C° 0.1 mm 6 mps 723 mmHg 25%
21:00 +40°C° 0.1 mm 6 mps 723 mmHg 30%
22:00 +39°C° 0.1 mm 5 mps 724 mmHg 34%
23:00 +37°C° 0.1 mm 5 mps 724 mmHg 38%

16 July, Thursday

Time Temperature Precipitation Wind Pressure Humidity
00:00 +36°C° 0 mm 4 mps 724 mmHg 38%
01:00 +36°C° 0 mm 3 mps 724 mmHg 38%
02:00 +35°C° 0 mm 2 mps 723 mmHg 39%
03:00 +35°C° 0 mm 2 mps 723 mmHg 38%
04:00 +34°C° 0 mm 1 mps 724 mmHg 38%
05:00 +34°C° 0 mm 1 mps 724 mmHg 38%
06:00 +35°C° 0 mm 1 mps 724 mmHg 36%
07:00 +36°C° 0 mm 1 mps 724 mmHg 34%
08:00 +37°C° 0 mm 1 mps 724 mmHg 33%
09:00 +39°C° 0 mm 1 mps 724 mmHg 30%
10:00 +41°C° 0 mm 2 mps 724 mmHg 28%
11:00 +42°C° 0 mm 2 mps 723 mmHg 26%
12:00 +43°C° 0 mm 2 mps 723 mmHg 24%
13:00 +45°C° 0 mm 2 mps 723 mmHg 21%
14:00 +46°C° 0 mm 2 mps 722 mmHg 19%
15:00 +45°C° 0 mm 1 mps 722 mmHg 19%
16:00 +45°C° 0 mm 1 mps 722 mmHg 18%
17:00 +46°C° 0 mm 1 mps 721 mmHg 18%
18:00 +44°C° 0.1 mm 1 mps 722 mmHg 20%
19:00 +43°C° 0.1 mm 1 mps 722 mmHg 23%
20:00 +41°C° 0.1 mm 1 mps 722 mmHg 25%
21:00 +40°C° 0.1 mm 1 mps 723 mmHg 27%
22:00 +40°C° 0.1 mm 1 mps 723 mmHg 29%
23:00 +39°C° 0.1 mm 1 mps 723 mmHg 31%

17 July, Friday

Time Temperature Precipitation Wind Pressure Humidity
00:00 +37°C° 0 mm 1 mps 723 mmHg 33%
01:00 +36°C° 0 mm 1 mps 723 mmHg 34%
02:00 +37°C° 0 mm 2 mps 723 mmHg 35%
03:00 +36°C° 0.3 mm 2 mps 723 mmHg 38%
04:00 +35°C° 0.3 mm 2 mps 723 mmHg 41%
05:00 +34°C° 0.3 mm 2 mps 723 mmHg 44%
06:00 +36°C° 0 mm 2 mps 723 mmHg 42%
07:00 +36°C° 0 mm 1 mps 724 mmHg 39%
08:00 +37°C° 0 mm 1 mps 724 mmHg 37%
09:00 +40°C° 0 mm 1 mps 724 mmHg 35%
10:00 +41°C° 0 mm 1 mps 724 mmHg 32%
11:00 +42°C° 0 mm 2 mps 724 mmHg 30%
12:00 +43°C° 0 mm 2 mps 724 mmHg 28%
13:00 +45°C° 0 mm 2 mps 723 mmHg 25%
14:00 +46°C° 0 mm 2 mps 723 mmHg 23%
15:00 +46°C° 0 mm 2 mps 723 mmHg 22%
16:00 +46°C° 0 mm 1 mps 722 mmHg 20%
17:00 +46°C° 0 mm 1 mps 722 mmHg 19%
18:00 +45°C° 0 mm 1 mps 722 mmHg 21%
19:00 +43°C° 0 mm 2 mps 722 mmHg 23%
20:00 +42°C° 0 mm 2 mps 722 mmHg 24%
21:00 +41°C° 0.1 mm 2 mps 723 mmHg 27%
22:00 +40°C° 0.1 mm 2 mps 723 mmHg 29%
23:00 +39°C° 0.1 mm 2 mps 723 mmHg 31%

18 July, Saturday

Time Temperature Precipitation Wind Pressure Humidity
00:00 +38°C° 0.2 mm 2 mps 723 mmHg 34%
01:00 +37°C° 0.2 mm 2 mps 723 mmHg 36%
02:00 +36°C° 0.2 mm 2 mps 723 mmHg 39%
03:00 +36°C° 0.4 mm 2 mps 723 mmHg 42%
04:00 +35°C° 0.4 mm 2 mps 723 mmHg 44%
05:00 +35°C° 0.4 mm 2 mps 723 mmHg 47%
06:00 +36°C° 0.1 mm 2 mps 723 mmHg 43%
07:00 +36°C° 0.1 mm 1 mps 723 mmHg 39%
08:00 +39°C° 0.1 mm 1 mps 723 mmHg 35%
09:00 +40°C° 0 mm 1 mps 723 mmHg 34%
10:00 +41°C° 0 mm 2 mps 723 mmHg 32%
11:00 +43°C° 0 mm 2 mps 723 mmHg 30%
12:00 +45°C° 0 mm 2 mps 722 mmHg 28%
13:00 +45°C° 0 mm 1 mps 722 mmHg 25%
14:00 +46°C° 0 mm 1 mps 722 mmHg 22%
15:00 +46°C° 0 mm 1 mps 721 mmHg 21%
16:00 +48°C° 0 mm 2 mps 721 mmHg 20%
17:00 +48°C° 0 mm 2 mps 721 mmHg 19%
18:00 +46°C° 0 mm 2 mps 721 mmHg 21%
19:00 +45°C° 0 mm 2 mps 721 mmHg 23%
20:00 +43°C° 0 mm 2 mps 721 mmHg 24%
21:00 +42°C° 0 mm 2 mps 721 mmHg 26%
22:00 +41°C° 0 mm 2 mps 721 mmHg 27%
23:00 +40°C° 0 mm 2 mps 721 mmHg 28%
Show more